Regional Weather Roundup
Issued by NWS

Current Version | Previous Version | Text Only | Print | Product List | Glossary On
Versions: 1 2 3 4 5 6 7 8 9 10 11 12 13 14 15 16 17 18 19 20 21 22 23 24 25 26 27 28 29
000
ASUS42 KTBW 230310
RWRFL
FLORIDA REGIONAL WEATHER ROUNDUP
NATIONAL WEATHER SERVICE TAMPA BAY RUSKIN FL
1100 PM EDT WED OCT 22 2014

NOTE: "FAIR" INDICATES FEW OR NO CLOUDS BELOW 12,000 FEET WITH NO
SIGNIFICANT WEATHER AND/OR OBSTRUCTIONS TO VISIBILITY.


FLZ001>010-012>015-112-114-115-230400-
PANHANDLE FLORIDA

CITY           SKY/WX    TMP DP  RH WIND       PRES   REMARKS
PENSACOLA      CLEAR     61  49  64 N3        30.08R
PENSACOLA NAS  CLEAR     61  48  62 N7        30.08R
MILTON NAS     CLEAR     52  45  77 CALM      30.10R
CRESTVIEW      CLEAR     56  45  66 NE5       30.10R
DUKE FIELD     CLEAR     52  46  80 CALM      30.08R
VALPARAISO     CLEAR     56  46  69 N7        30.08R
MARY ESTHER    CLEAR     55  45  70 N7        30.08R
PANAMA CITY    FAIR      56  46  69 N5        30.07R
TYNDALL AFB    CLEAR     65  48  54 NE7       30.07R
APALACHICOLA   CLEAR     64  50  60 NE7       30.05R

STATION/POSITION SKY/WX   TEMP    WIND        PRES    WAVE   SWELL
                          AIR SEA DIR/SP/G            HT/PER HT/PER
                          (F)     (DEG/KT/KT) (MB)    (FT/S) (FT/S)
30.1N   87.6W              72 78   30/ 17/ 21 1017.6R   2/ 4
29.2N   88.2W              75 79   40/ 14/ 16 1017.9    3/ 5
28.8N   86.0W              76 80   30/ 16/ 17 1016.4R   3/ 5
PANAMA CITY BEAC           64 77   30/  4/  6 1018.3R
CAPE SAN BLAS    NOT AVBL
TOWER C                    73      40/ 16/ 18 1016.9R
28.5N   84.5W              76 81   40/ 14/ 17 1015.8R   3/ 5

$$
FLZ011-016>038-118-127-128-134-139-239-230400-
NORTH FLORIDA

CITY           SKY/WX    TMP DP  RH WIND       PRES   REMARKS
TALLAHASSEE    CLEAR     63  45  51 N3        30.07R
PERRY          CLEAR     59  46  63 NE3       30.07R
CROSS CITY       N/A     55  51  86 E3        30.05R
LAKE CITY      FAIR      54  50  87 CALM      30.07R
GAINESVILLE    CLEAR     58  53  84 CALM      30.06R
MAYPORT NAS    CLEAR     65  49  56 N5        30.06R
JACKSONVILLE   CLEAR     55  53  93 CALM      30.06R
JAX NAS        PTCLDY    69  50  50 N13       30.07R
JAX CRAIG      CLEAR     63  50  62 N5        30.06R
JAX CECIL      CLEAR     50  50 100 CALM      30.07R
FERNANDINA BEA FAIR      68  45  42 N3        30.05S
ST AUGUSTINE   PTCLDY    67  52  58 NE12      30.06R

STATION/POSITION SKY/WX   TEMP    WIND        PRES    WAVE   SWELL
                          AIR SEA DIR/SP/G            HT/PER HT/PER
                          (F)     (DEG/KT/KT) (MB)    (FT/S) (FT/S)
SHELL POINT                66      10/  6/  8   N/A
KEATON BEACH               59      30/  6/  8 1017.8R
CEDAR KEY                  66      60/ 15/ 17 1017.4R
FERNANDINA                 67 76  360/  8/ 11 1017.4R
30.7N   81.3W                 77                N/A     3/ 6
MAYPORT                    66 77  350/  5/  7   N/A
31.4N   80.9W              68 75   10/ 10/ 16 1017.9R   3/ 6   2/ 6
ST AUGUSTINE               69      30/ 10/ 12 1018.4R

$$
FLZ040-043>046-052-053-057-058-063-144-230400-
INTERIOR CENTRAL FLORIDA

CITY           SKY/WX    TMP DP  RH WIND       PRES   REMARKS
OCALA          MOCLDY    63  54  72 NE5       30.04S
THE VILLAGES     N/A     64  57  77 NE8       29.93S
LEESBURG       MOCLDY    66  57  72 NE9       30.04R
SANFORD        MOCLDY    67  58  72 NE7       30.01F
ORLANDO EXEC   MOCLDY    70  60  70 NE7       30.01S
ORLANDO INTL   MOCLDY    68  60  75 N9        30.01S
WINTER HAVEN   MOCLDY    69  61  75 NE10      30.01S
LAKELAND       MOCLDY    70  61  73 NE12      30.00R
BARTOW         FAIR      70  61  73 NE13      30.01R
OKEECHOBEE       N/A     70  64  83 MISG      29.97

$$
FLZ041-047-054-059-064-141-147-230400-
EAST CENTRAL FLORIDA

CITY           SKY/WX    TMP DP  RH WIND       PRES   REMARKS
DAYTONA BEACH  PTCLDY    69  53  56 NE14      30.03S
DELAND         MOCLDY    64  57  77 N5        30.03F
JFK SPACE CTR  PTCLDY    70  59  68 NE12      30.00F
CAPE CANAVERAL PTCLDY    72  60  64 NE8       29.98F
PATRICK AFB    MOCLDY    74  62  66 N13       29.99S
MELBOURNE      MOCLDY    74  63  68 NE13      29.98S
VERO BEACH     MOCLDY    73  64  73 NE8       29.97S
FT PIERCE      MOCLDY    75  63  66 NE5       29.96F
STUART         MOCLDY    75  64  69 NE7       29.97S

STATION/POSITION SKY/WX   TEMP    WIND        PRES    WAVE   SWELL
                          AIR SEA DIR/SP/G            HT/PER HT/PER
                          (F)     (DEG/KT/KT) (MB)    (FT/S) (FT/S)
28.5N   80.2W              75 82   20/ 16/ 19 1015.4S
28.9N   78.5W              74 81  360/ 12/ 16 1015.6F   4/ 6   3/ 6
TRIDENT PIER               71 80  360/  7/  9 1015.2S
28.4N   80.5W                 79                N/A     2/ 4
27.6N   80.2W                 80                N/A     3/ 4   2/13

$$
FLZ050-056-061-142-242-148-248-149-249-151-251-155-255-
160-260-230400-
WEST CENTRAL FLORIDA

CITY           SKY/WX    TMP DP  RH WIND       PRES   REMARKS
CRYSTAL RIVER  FAIR      64  55  72 NE5       30.03R
INVERNESS      FAIR      64  55  72 NE3       30.03S
BROOKSVILLE    PTCLDY    67  59  75 NE9       30.02R
ZEPHYRHILLS    FAIR      66  61  82 NE8       30.01S
CLEARWATER     MOCLDY    74  63  68 NE8G20    29.98R
TAMPA INTL     MOCLDY    73  60  63 NE9       29.99R
TAMPA EXEC     MOCLDY    72  63  73 NE6       29.99S
PLANT CITY     MOCLDY    72  63  73 E7        30.01R
MACDILL AFB    CLOUDY    71  65  80 E13       29.98R
ST PETERSBURG  MOCLDY    77  65  66 E18       29.97R
SARASOTA       MOCLDY    74  64  71 NE9       29.95R
VENICE           N/A     75  66  73 MISG      29.96R

STATION/POSITION SKY/WX   TEMP    WIND        PRES    WAVE   SWELL
                          AIR SEA DIR/SP/G            HT/PER HT/PER
                          (F)     (DEG/KT/KT) (MB)    (FT/S) (FT/S)
CEDAR KEY                  66      60/ 15/ 17 1017.4R
28.5N   84.5W              76 81   40/ 14/ 17 1015.8R   3/ 5
27.3N   84.3W                 81                N/A     4/ 5
CLEARWATER BEACH NOT AVBL
MIDDLE TAMPA BAY           77      80/ 17/ 19 1014.9F
VENICE                     76 81   10/  7/ 10 1013.8R

$$
FLZ066-069-070-075>078-162-262-165-265-230400-
SOUTHWEST FLORIDA AND KEYS

CITY           SKY/WX    TMP DP  RH WIND       PRES   REMARKS
PUNTA GORDA    CLOUDY    74  69  85 NE8       29.96S
FT MYERS       CLOUDY    77  71  82 CALM      29.93S
SOUTHWEST INTL CLOUDY    75  72  90 CALM      29.94S
NAPLES         CLOUDY    77  72  84 E3        29.93S
MARATHON       CLOUDY    74 N/A N/A E8        29.93R
KEY WEST NAS   MOCLDY   N/A N/A N/A E9        29.93R
KEY WEST INTL  RAIN      74  74 100 E7        29.93R

STATION/POSITION SKY/WX   TEMP    WIND        PRES    WAVE   SWELL
                          AIR SEA DIR/SP/G            HT/PER HT/PER
                          (F)     (DEG/KT/KT) (MB)    (FT/S) (FT/S)
VENICE                     76 81   10/  7/ 10 1013.8R
NAPLES                     76 83  120/  3/  4 1014.1F
26.0N   85.6W              80 82   50/ 19/ 23 1013.4R   6/ 6
DRY TORTUGAS               78     120/ 16/ 19 1012.5S
NW FL BAY                  76      90/  8/  9 1013.8F
SAND KEY                   77      80/ 16/ 18 1013.3R
SOMBRERO KEY               77      90/ 16/ 17 1013.7R
LONG KEY                   77 79   80/ 12/ 13 1014.1S
MOLASSES REEF              77 83   80/  8/ 10 1013.6S

$$
FLZ067-068-071>074-168-172>174-230400-
SOUTHEAST FLORIDA

CITY           SKY/WX    TMP DP  RH WIND       PRES   REMARKS
W PALM BEACH   MOCLDY    77  71  82 N5        29.93F
FT LAUDER-EXEC CLOUDY    77  73  87 CALM      29.94S
FT LAUDERDALE  CLOUDY    77  71  82 CALM      29.94S
POMPANO BEACH  CLOUDY    78  70  76 N3        29.94F
PEMBROKE PINES CLOUDY    75  73  93 CALM      29.95S
OPA LOCKA      LGT RAIN  76  73  91 N3        29.95S
MIAMI          CLOUDY    76  72  87 CALM      29.94F
WEST KENDALL   CLOUDY    76  72  87 CALM      29.94F
HOMESTEAD      CLOUDY    74  72  93 E2        29.94S

STATION/POSITION SKY/WX   TEMP    WIND        PRES    WAVE   SWELL
                          AIR SEA DIR/SP/G            HT/PER HT/PER
                          (F)     (DEG/KT/KT) (MB)    (FT/S) (FT/S)
PORT EVERGLADES            77     220/  2/  3 1013.8
VIRGINIA KEY               77 81  130/  4/  6 1014.3F
LAKE WORTH                 80 83   30/  8/ 11 1013.6F
FOWEY ROCKS                77 81  140/  6/  7 1013.9F
SETTLEMENT POINT           80      40/  7/  8 1014.6F

$$




USA.gov is the U.S. government's official web portal to all federal, state and local government web resources and services.